Flag for U.S.A. Weather past 2 weeks in Jersey City, New Jersey, U.S.A.

Now
43 °F

Broken clouds.


Feels Like: 38 °F
Forecast: 37 / 49 °F
Wind: 9 mph from Southeast

Location: Newark International Airport


UV Index: 5 (Moderate)

Visibility: 10 mi


Pressure: 30.65 "Hg

Humidity: 60%

Dew point: 30 °F

Location of Jersey CityLocation

Historic Weather in Jersey City

°F

Jersey City temperature yesterday

Maximum temperature yesterday: 49 °F (at 3:51 PM)
Minimum temperature yesterday: 31 °F (at 5:51 AM)
Average temperature yesterday: 40 °F

Past Weeks' High & Low Weather Summary

 TemperatureHumidityPressure
High83 °F (Apr 13, 2:51 PM)100% (Apr 7, 10:51 PM)30.73 "Hg (Apr 7, 10:51 PM)
Low31 °F (Apr 16, 5:51 AM)17% (Apr 6, 4:51 PM)29.40 "Hg (Apr 8, 12:51 PM)
Average53 °F58%30.01 "Hg
* Reported Apr 2 5:51 PM — Apr 17 5:51 PM, Jersey City, Weather by CustomWeather, © 2014

Note: Actual official high and low records may vary slightly from our data, if they occured in-between our weather recording intervals... More about our weather records

Advertising

Historic Weather Conditions — Data for Previous 24 hours

 ConditionsComfort  
Time TempWeatherWind HumidityBarometerVisibility
5:51 PM
Apr 17
44 °FBroken clouds.12 mph58%30.66 "Hg10 mi
4:51 PM45 °FBroken clouds.10 mph56%30.67 "Hg10 mi
3:51 PM45 °FBroken clouds.10 mph56%30.68 "Hg10 mi
2:51 PM45 °FBroken clouds.9 mph58%30.70 "Hg10 mi
1:51 PM44 °FBroken clouds.14 mph55%30.71 "Hg10 mi
12:51 PM46 °FPartly sunny.8 mph50%30.71 "Hg10 mi
11:51 AM46 °FPartly sunny.3 mph44%30.72 "Hg10 mi
10:51 AM44 °FScattered clouds.6 mph41%30.73 "Hg10 mi
9:51 AM42 °FPassing clouds.10 mph43%30.72 "Hg10 mi
8:51 AM40 °FPassing clouds.8 mph45%30.71 "Hg10 mi
7:51 AM39 °FPassing clouds.13 mph53%30.70 "Hg10 mi
6:51 AM37 °FPassing clouds.10 mph57%30.66 "Hg10 mi
5:51 AM35 °FPassing clouds.10 mph59%30.63 "Hg10 mi
4:51 AM34 °FPassing clouds.10 mph59%30.62 "Hg10 mi
3:51 AM36 °FPassing clouds.13 mph52%30.62 "Hg10 mi
2:51 AM36 °FClear.10 mph52%30.61 "Hg10 mi
1:51 AM37 °FClear.12 mph48%30.60 "Hg10 mi
12:51 AM38 °FClear.10 mph43%30.59 "Hg10 mi
11:51 PM
Apr 16
40 °FPassing clouds.10 mph40%30.57 "Hg10 mi
10:51 PM41 °FPassing clouds.10 mph38%30.55 "Hg10 mi
9:51 PM43 °FClear.12 mph35%30.53 "Hg10 mi
8:51 PM44 °FPassing clouds.10 mph31%30.50 "Hg10 mi
7:51 PM46 °FScattered clouds.13 mph27%30.45 "Hg10 mi
Weather by CustomWeather, © 2014

See weather overview